Time,TemperatureF,DewpointF,PressureIn,WindDirection,WindDirectionDegrees,WindSpeedMPH,WindSpeedGustMPH,Humidity,HourlyPrecipIn,Conditions,Clouds,dailyrainin,SoftwareType,DateUTC
2013-03-24 00:00:00,-1.0,-18.0,-100.00,WSW,258,7.0,14.0,44,-99.99,,,-99.99,,2013-03-24 06:00:00,
2013-03-24 00:42:00,-1.0,-18.0,-100.00,WSW,258,7.0,14.0,44,-99.99,,,-99.99,,2013-03-24 06:42:00,
2013-03-24 00:52:00,-1.0,-18.0,-100.00,WSW,258,7.0,14.0,44,-99.99,,,-99.99,,2013-03-24 06:52:00,
2013-03-24 01:00:00,-2.0,-20.0,-100.00,West,272,7.0,14.0,41,-99.99,,,-99.99,,2013-03-24 07:00:00,
2013-03-24 01:42:00,-2.0,-20.0,-100.00,West,272,7.0,14.0,41,-99.99,,,-99.99,,2013-03-24 07:42:00,
2013-03-24 01:52:00,-2.0,-20.0,-100.00,West,272,7.0,14.0,41,-99.99,,,-99.99,,2013-03-24 07:52:00,
2013-03-24 02:00:00,-2.0,-20.0,-100.00,SW,223,4.0,7.0,42,-99.99,,,-99.99,,2013-03-24 08:00:00,
2013-03-24 02:42:00,-2.0,-20.0,-100.00,SW,223,4.0,7.0,42,-99.99,,,-99.99,,2013-03-24 08:42:00,
2013-03-24 02:52:00,-2.0,-20.0,-100.00,SW,223,4.0,7.0,42,-99.99,,,-99.99,,2013-03-24 08:52:00,
2013-03-24 03:00:00,-2.0,-22.0,-100.00,SW,228,5.0,12.0,37,-99.99,,,-99.99,,2013-03-24 09:00:00,
2013-03-24 03:43:00,-2.0,-22.0,-100.00,SW,228,5.0,12.0,37,-99.99,,,-99.99,,2013-03-24 09:43:00,
2013-03-24 03:52:00,-2.0,-22.0,-100.00,SW,228,5.0,12.0,37,-99.99,,,-99.99,,2013-03-24 09:52:00,
2013-03-24 04:00:00,-2.0,-21.0,-100.00,West,260,11.0,19.0,39,-99.99,,,-99.99,,2013-03-24 10:00:00,
2013-03-24 04:42:00,-2.0,-21.0,-100.00,West,260,11.0,19.0,39,-99.99,,,-99.99,,2013-03-24 10:42:00,
2013-03-24 04:52:00,-2.0,-21.0,-100.00,West,260,11.0,19.0,39,-99.99,,,-99.99,,2013-03-24 10:52:00,
2013-03-24 05:00:00,-2.0,-20.0,-100.00,SW,232,12.0,22.0,41,-99.99,,,-99.99,,2013-03-24 11:00:00,
2013-03-24 05:42:00,-2.0,-20.0,-100.00,SW,232,12.0,22.0,41,-99.99,,,-99.99,,2013-03-24 11:42:00,
2013-03-24 05:52:00,-2.0,-20.0,-100.00,SW,232,12.0,22.0,41,-99.99,,,-99.99,,2013-03-24 11:52:00,
2013-03-24 06:00:00,-3.0,-21.0,-100.00,WSW,249,9.0,17.0,40,-99.99,,,-99.99,,2013-03-24 12:00:00,
2013-03-24 06:42:00,-3.0,-21.0,-100.00,WSW,249,9.0,17.0,40,-99.99,,,-99.99,,2013-03-24 12:42:00,
2013-03-24 06:52:00,-3.0,-21.0,-100.00,WSW,249,9.0,17.0,40,-99.99,,,-99.99,,2013-03-24 12:52:00,
2013-03-24 07:00:00,-3.0,-22.0,-100.00,WSW,254,9.0,20.0,40,-99.99,,,-99.99,,2013-03-24 13:00:00,
2013-03-24 07:43:00,-3.0,-22.0,-100.00,WSW,254,9.0,20.0,40,-99.99,,,-99.99,,2013-03-24 13:43:00,
2013-03-24 07:52:00,-3.0,-22.0,-100.00,WSW,254,9.0,20.0,40,-99.99,,,-99.99,,2013-03-24 13:52:00,
2013-03-24 08:00:00,-3.0,-19.0,-100.00,WSW,242,12.0,22.0,44,-99.99,,,-99.99,,2013-03-24 14:00:00,
2013-03-24 08:43:00,-3.0,-19.0,-100.00,WSW,242,12.0,22.0,44,-99.99,,,-99.99,,2013-03-24 14:43:00,
2013-03-24 08:52:00,-3.0,-19.0,-100.00,WSW,242,12.0,22.0,44,-99.99,,,-99.99,,2013-03-24 14:52:00,
2013-03-24 09:00:00,-2.0,-16.0,-100.00,SW,216,13.0,21.0,51,-99.99,,,-99.99,,2013-03-24 15:00:00,
2013-03-24 09:43:00,-2.0,-16.0,-100.00,SW,216,13.0,21.0,51,-99.99,,,-99.99,,2013-03-24 15:43:00,
2013-03-24 09:53:00,-2.0,-16.0,-100.00,SW,216,13.0,21.0,51,-99.99,,,-99.99,,2013-03-24 15:53:00,
2013-03-24 10:00:00,-1.0,-13.0,-100.00,SSW,204,13.0,19.0,54,-99.99,,,-99.99,,2013-03-24 16:00:00,
2013-03-24 10:43:00,-1.0,-13.0,-100.00,SSW,204,13.0,19.0,54,-99.99,,,-99.99,,2013-03-24 16:43:00,
2013-03-24 10:52:00,-1.0,-13.0,-100.00,SSW,204,13.0,19.0,54,-99.99,,,-99.99,,2013-03-24 16:52:00,
2013-03-24 11:00:00,3.0,-12.0,-100.00,SSW,211,12.0,20.0,48,-99.99,,,-99.99,,2013-03-24 17:00:00,
2013-03-24 11:43:00,3.0,-12.0,-100.00,SSW,211,12.0,20.0,48,-99.99,,,-99.99,,2013-03-24 17:43:00,
2013-03-24 11:53:00,3.0,-12.0,-100.00,SSW,211,12.0,20.0,48,-99.99,,,-99.99,,2013-03-24 17:53:00,
2013-03-24 12:00:00,5.0,-11.0,-100.00,SW,217,13.0,25.0,46,-99.99,,,-99.99,,2013-03-24 18:00:00,
2013-03-24 12:43:00,5.0,-11.0,-100.00,SW,217,13.0,25.0,46,-99.99,,,-99.99,,2013-03-24 18:43:00,
2013-03-24 12:52:00,5.0,-11.0,-100.00,SW,217,13.0,25.0,46,-99.99,,,-99.99,,2013-03-24 18:52:00,
2013-03-24 13:00:00,8.0,-9.0,-100.00,SW,224,12.0,26.0,46,-99.99,,,-99.99,,2013-03-24 19:00:00,
2013-03-24 13:43:00,8.0,-9.0,-100.00,SW,224,12.0,26.0,46,-99.99,,,-99.99,,2013-03-24 19:43:00,
2013-03-24 13:53:00,8.0,-9.0,-100.00,SW,224,12.0,26.0,46,-99.99,,,-99.99,,2013-03-24 19:53:00,
2013-03-24 14:00:00,8.0,-7.0,-100.00,SW,216,17.0,33.0,49,-99.99,,,-99.99,,2013-03-24 20:00:00,
2013-03-24 14:43:00,8.0,-7.0,-100.00,SW,216,17.0,33.0,49,-99.99,,,-99.99,,2013-03-24 20:43:00,
2013-03-24 14:53:00,8.0,-7.0,-100.00,SW,216,17.0,33.0,49,-99.99,,,-99.99,,2013-03-24 20:53:00,
2013-03-24 15:00:00,11.0,-6.0,-100.00,SW,216,13.0,28.0,46,-99.99,,,-99.99,,2013-03-24 21:00:00,
2013-03-24 15:43:00,11.0,-6.0,-100.00,SW,216,13.0,28.0,46,-99.99,,,-99.99,,2013-03-24 21:43:00,
2013-03-24 15:53:00,11.0,-6.0,-100.00,SW,216,13.0,28.0,46,-99.99,,,-99.99,,2013-03-24 21:53:00,
2013-03-24 16:00:00,12.0,-5.0,-100.00,SW,215,12.0,25.0,47,-99.99,,,-99.99,,2013-03-24 22:00:00,
2013-03-24 16:43:00,12.0,-5.0,-100.00,SW,215,12.0,25.0,47,-99.99,,,-99.99,,2013-03-24 22:43:00,
2013-03-24 16:53:00,12.0,-5.0,-100.00,SW,215,12.0,25.0,47,-99.99,,,-99.99,,2013-03-24 22:53:00,
2013-03-24 17:00:00,12.0,-6.0,-100.00,SW,224,11.0,23.0,43,-99.99,,,-99.99,,2013-03-24 23:00:00,
2013-03-24 17:42:00,12.0,-6.0,-100.00,SW,224,11.0,23.0,43,-99.99,,,-99.99,,2013-03-24 23:42:00,
2013-03-24 17:53:00,12.0,-6.0,-100.00,SW,224,11.0,23.0,43,-99.99,,,-99.99,,2013-03-24 23:53:00,
2013-03-24 18:00:00,13.0,-10.0,-100.00,West,269,10.0,20.0,34,-99.99,,,-99.99,,2013-03-25 00:00:00,
2013-03-24 18:43:00,13.0,-10.0,-100.00,West,269,10.0,20.0,34,-99.99,,,-99.99,,2013-03-25 00:43:00,
2013-03-24 18:53:00,13.0,-10.0,-100.00,West,269,10.0,20.0,34,-99.99,,,-99.99,,2013-03-25 00:53:00,
2013-03-24 19:00:00,12.0,-14.0,-100.00,WNW,290,11.0,22.0,29,-99.99,,,-99.99,,2013-03-25 01:00:00,
2013-03-24 19:42:00,12.0,-14.0,-100.00,WNW,290,11.0,22.0,29,-99.99,,,-99.99,,2013-03-25 01:42:00,
2013-03-24 19:52:00,12.0,-14.0,-100.00,WNW,290,11.0,22.0,29,-99.99,,,-99.99,,2013-03-25 01:52:00,
2013-03-24 20:00:00,9.0,-14.0,-100.00,NW,314,7.0,20.0,33,-99.99,,,-99.99,,2013-03-25 02:00:00,
2013-03-24 20:43:00,9.0,-14.0,-100.00,NW,314,7.0,20.0,33,-99.99,,,-99.99,,2013-03-25 02:43:00,
2013-03-24 20:52:00,9.0,-14.0,-100.00,NW,314,7.0,20.0,33,-99.99,,,-99.99,,2013-03-25 02:52:00,
2013-03-24 21:00:00,7.0,-13.0,-100.00,WNW,299,9.0,18.0,39,-99.99,,,-99.99,,2013-03-25 03:00:00,
2013-03-24 21:43:00,7.0,-13.0,-100.00,WNW,299,9.0,18.0,39,-99.99,,,-99.99,,2013-03-25 03:43:00,
2013-03-24 21:53:00,7.0,-13.0,-100.00,WNW,299,9.0,18.0,39,-99.99,,,-99.99,,2013-03-25 03:53:00,
2013-03-24 22:00:00,5.0,-8.0,-100.00,WNW,300,6.0,16.0,54,-99.99,,,-99.99,,2013-03-25 04:00:00,
2013-03-24 22:43:00,5.0,-8.0,-100.00,WNW,300,6.0,16.0,54,-99.99,,,-99.99,,2013-03-25 04:43:00,
2013-03-24 22:52:00,5.0,-8.0,-100.00,WNW,300,6.0,16.0,54,-99.99,,,-99.99,,2013-03-25 04:52:00,
2013-03-24 23:00:00,4.0,-8.0,-100.00,NNE,16,3.0,6.0,56,-99.99,,,-99.99,,2013-03-25 05:00:00,
2013-03-24 23:42:00,4.0,-8.0,-100.00,NNE,16,3.0,6.0,56,-99.99,,,-99.99,,2013-03-25 05:42:00,
2013-03-24 23:52:00,4.0,-8.0,-100.00,NNE,16,3.0,6.0,56,-99.99,,,-99.99,,2013-03-25 05:52:00,